MAUNA LOA HI US current weather conditions

sailwx.info

Wind from 098 at 5 knots gusting 14

Air temperature 25.6° C
Dewpoint 13.1° C

Last reported at 2015-Aug-30 00:34 UTC.
Time now 2015-Aug-30 01:40 UTC

Location: N 19°28' W 155°22'.
View on Google Maps.

See reports from other nearby stations

  
Tides and Currents Weather Stations Pressure Air Temp Water Temp Dewpoint Dewpoint Depression Visibility Wind Speed Wind Dir Waves Ship Positions
date/time (UTC)wind fromknots sea level pressurealtimeterstation pressurevisibilityair tempwater tempwave heightnotes
2015-Aug-30 00:34 098 5 gusting 14 25.6
2015-Aug-29 23:34 147 6 gusting 12 26.1
2015-Aug-29 22:34 130 6 gusting 17 26.1
2015-Aug-29 21:34 155 4 gusting 11 26.1
2015-Aug-29 20:34 066 4 gusting 12 26.1
2015-Aug-29 19:34 038 5 gusting 11 25.6
2015-Aug-29 18:34 033 4 gusting 7 23.9
2015-Aug-29 17:34 342 3 gusting 6 18.9
2015-Aug-29 16:34 303 4 gusting 6 9.4
2015-Aug-29 15:34 294 5 gusting 6 8.3
2015-Aug-29 14:34 302 4 gusting 5 8.9
2015-Aug-29 13:34 298 2 gusting 6 10.0
2015-Aug-29 12:34 314 4 gusting 6 10.6
2015-Aug-29 11:34 293 4 gusting 7 11.7
2015-Aug-29 10:34 310 6 gusting 8 12.2
2015-Aug-29 09:34 305 4 gusting 9 12.2
2015-Aug-29 08:34 312 3 gusting 4 12.2
2015-Aug-29 07:34 15.0
2015-Aug-29 06:34 243 2 gusting 5 15.0
2015-Aug-29 05:34 023 1 gusting 6 16.1
2015-Aug-29 04:34 251 0 gusting 7 17.8
2015-Aug-29 03:34 061 2 gusting 7 20.6
2015-Aug-29 02:34 118 3 gusting 9 19.4
2015-Aug-29 01:34 084 5 gusting 11 22.2
2015-Aug-29 00:34 092 5 gusting 11 22.8
2015-Aug-28 23:34 103 6 gusting 13 22.2
2015-Aug-28 22:34 094 5 gusting 13 24.4
2015-Aug-28 21:34 106 5 gusting 10 23.9
2015-Aug-28 20:34 124 4 gusting 9 21.1
2015-Aug-28 19:34 160 3 gusting 9 21.7
2015-Aug-28 18:34 078 4 gusting 8 23.3
2015-Aug-28 17:34 332 3 gusting 7 20.0
2015-Aug-28 16:34 348 3 gusting 8 14.4
2015-Aug-28 15:34 315 5 gusting 8 12.8
2015-Aug-28 14:34 322 5 gusting 8 13.3
2015-Aug-28 13:34 321 5 gusting 8 13.3
2015-Aug-28 12:34 320 4 gusting 9 12.8
2015-Aug-28 11:34 281 2 gusting 6 12.2
2015-Aug-28 10:34 342 3 gusting 5 13.3
2015-Aug-28 09:34 279 3 gusting 5 13.3
2015-Aug-28 08:34 009 2 gusting 4 14.4
2015-Aug-28 07:34 273 0 gusting 5 15.6
2015-Aug-28 06:34 093 0 gusting 6 16.7
2015-Aug-28 05:34 009 4 gusting 10 16.7
2015-Aug-28 04:34 030 4 gusting 10 17.2
2015-Aug-28 03:34 038 5 gusting 9 18.3
2015-Aug-28 02:34 041 5 gusting 11 20.0
2015-Aug-28 01:34 044 5 gusting 11 22.2